[[{"header":{"parameterUnit":"m.s-1","parameterCategory":1,"la1":30.2991,"la2":30.254,"lo1":-89.0895,"lo2":-89.0444,"dy":0.0017,"dx":0.0017,"nx":28,"ny":28,"refTime":"2026-01-07T03:00:00:Z","depth":0,"parameterNumber":2,"parameterNumberName":"U-component_of_WINDS"},"data":[0,0,0,0,0,0,0,0,0,0,0,0,0,0,0,0,0,0,0,0,0,0,0,0,0,0,0,0,0,0,0,0,0,0,0,0,0,0,0,0,0,0,0,0,0,0,0,0,0,0,0,0,0,0,0,0,0,0,0.6132,0.6133,0,0.6263,0.6264,0.6266,0.6324,0.6324,0.6323,0.6323,0.6463,0.6467,0.6471,0,0,0,0,0,0,0,0,0,0,0,0,0,0.5939,0.5942,0.6131,0.6133,0.6135,0.6262,0.6264,0.6266,0.6324,0.6324,0.6323,0.6323,0.6462,0.6466,0.6471,0,0,0,0,0,0,0,0,0,0,0,0,0,0.6042,0.5943,0.6131,0.6179,0.6184,0.6262,0.6264,0.6267,0.6324,0.6324,0.6323,0.6323,0.646,0.6466,0.6472,0.6513,0,0,0.649,0.6492,0,0,0,0,0,0,0,0,0.6036,0.6049,0.617,0.6176,0.6182,0.6276,0.6248,0.635,0.6324,0.6271,0.6323,0.6323,0.6402,0.6412,0.6438,0.652,0.6526,0.649,0.6494,0.6496,0.6498,0,0,0,0,0,0,0,0.6028,0.6043,0.6184,0.6172,0.6179,0.6196,0.621,0.6267,0.6337,0.6276,0.628,0.6295,0.6405,0.6432,0.6441,0.6528,0.649,0.6495,0.6499,0.6501,0.6656,0.6656,0,0,0,0,0,0,0.6013,0.6037,0.6179,0.6188,0.6106,0.62,0.6216,0.6247,0.6336,0.6349,0.6295,0.6297,0.6422,0.6434,0.6446,0.6504,0.6496,0.6502,0.6505,0.6655,0.6656,0.6657,0,0,0,0,0,0,0.6008,0.6025,0.6174,0.6114,0.6134,0.6203,0.6238,0.6249,0.6276,0.635,0.6364,0.6309,0.6422,0.6438,0.6497,0.6509,0.6504,0.6509,0.6655,0.6655,0.6656,0.6617,0,0,0,0,0,0,0.6002,0.6023,0.6037,0.6113,0.6137,0.622,0.6238,0.6252,0.6286,0.629,0.6367,0.638,0.6423,0.6488,0.6503,0.6517,0.6514,0.6654,0.6655,0.6656,0.6617,0.6616,0.6615,0,0,0,0,0,0.5995,0.6021,0.6038,0.6054,0.6156,0.622,0.6234,0.6281,0.6286,0.6303,0.6351,0.6378,0.6505,0.6493,0.6511,0.6527,0.6653,0.6655,0.6656,0.6618,0.6616,0.6615,0,0,0,0,0,0,0.5945,0.6032,0.6051,0.6102,0.6153,0.623,0.6252,0.6278,0.633,0.6332,0.6391,0.6408,0.6462,0.6501,0.6486,0.6574,0.6582,0.6587,0.6547,0.6546,0.6545,0.6535,0.6519,0,0,0,0,0,0.594,0.5983,0.6057,0.6095,0.612,0.6181,0.6211,0.6243,0.63,0.6322,0.6375,0.643,0.6483,0.6517,0.657,0.6623,0.6643,0.6644,0.6642,0.6641,0.6645,0.668,0.6682,0.6661,0.6661,0.6661,0,0,0.593,0.5983,0.6006,0.6086,0.613,0.6176,0.6199,0.6246,0.6281,0.633,0.6388,0.6429,0.6496,0.6552,0.658,0.6586,0.6655,0.6643,0.6641,0.6646,0.6681,0.6683,0.6685,0.6662,0.6662,0.6662,0,0,0.5935,0.5978,0.6015,0.6059,0.6125,0.6166,0.6175,0.6249,0.6277,0.6337,0.6376,0.642,0.6509,0.6556,0.6591,0.6618,0.6645,0.6633,0.6628,0.6661,0.6663,0.6665,0.6676,0.668,0.6637,0.6637,0.6637,0,0.5914,0.5983,0.6032,0.6077,0.6113,0.6159,0.6199,0.624,0.632,0.6344,0.635,0.6465,0.6512,0.6582,0.6589,0.6615,0.663,0.6625,0.6658,0.6661,0.6663,0.6675,0.6679,0.6635,0.6635,0.6635,0.6635,0,0.5956,0.6003,0.6026,0.6101,0.614,0.6182,0.6241,0.6274,0.6304,0.6346,0.6408,0.6468,0.6534,0.6554,0.6583,0.6629,0.6631,0.6646,0.6655,0.6662,0.6675,0.668,0.6632,0.6633,0.6634,0.6634,0,0,0.5931,0.6035,0.6043,0.6079,0.6156,0.6195,0.6242,0.6306,0.6335,0.639,0.6432,0.6508,0.6524,0.6564,0.66,0.6629,0.665,0.6642,0.6644,0.6642,0.6707,0.6695,0.6699,0.6668,0.6669,0.667,0.6702,0,0.5947,0.603,0.6078,0.6142,0.6188,0.6234,0.6276,0.6329,0.637,0.6418,0.6465,0.6518,0.6534,0.6559,0.6589,0.664,0.6663,0.6639,0.6711,0.6713,0.6693,0.6706,0.6693,0.672,0.6707,0.6708,0.6708,0,0.5977,0.603,0.6099,0.6175,0.6196,0.6231,0.6296,0.634,0.6403,0.6432,0.6478,0.6514,0.6569,0.6574,0.6651,0.6633,0.6666,0.6696,0.6699,0.6708,0.6711,0.6717,0.673,0.6734,0.6716,0.6715,0.6715,0,0.5954,0.6044,0.6097,0.6127,0.6215,0.624,0.6278,0.6341,0.6378,0.6436,0.6461,0.6524,0.6559,0.6609,0.6663,0.6661,0.6737,0.6745,0.6764,0.6763,0.6778,0.6776,0.6797,0.6797,0.6797,0.6797,0.6797,0,0.5968,0.6009,0.6089,0.6121,0.617,0.6226,0.6273,0.6316,0.6372,0.6417,0.6461,0.6502,0.657,0.6621,0.6664,0.6724,0.6739,0.6765,0.6777,0.6762,0.6759,0.6785,0.6784,0.6798,0.6798,0.6798,0.6797,0,0.595,0.6005,0.6067,0.6146,0.6168,0.62,0.6269,0.6305,0.635,0.6405,0.6422,0.6493,0.6555,0.6614,0.6697,0.6727,0.6787,0.6801,0.6765,0.6771,0.6787,0.6785,0.6826,0.6836,0.6827,0.6827,0.6827,0,0.5955,0.5988,0.6072,0.6104,0.6141,0.6193,0.6231,0.6289,0.6327,0.6404,0.6431,0.6497,0.6552,0.665,0.671,0.6776,0.6792,0.6802,0.6802,0.6788,0.6795,0.6792,0.6797,0.6801,0.6801,0.6801,0.6801,0,0.596,0.5986,0.6038,0.6101,0.6145,0.6198,0.6252,0.6277,0.6346,0.6387,0.6451,0.6494,0.658,0.6645,0.6718,0.6761,0.6793,0.68,0.6808,0.6794,0.6772,0.6786,0.6763,0.6799,0.6799,0.6799,0.6799,0.6799,0.5955,0.5988,0.6052,0.611,0.6157,0.6207,0.6245,0.6295,0.6349,0.6422,0.6454,0.652,0.6587,0.6687,0.673,0.6784,0.6791,0.6802,0.6806,0.6808,0.6806,0.6763,0.6797,0.6798,0.6798,0.6798,0.6798,0,0.5963,0.6008,0.6061,0.6135,0.6182,0.6207,0.627,0.6308,0.6364,0.6423,0.6477,0.6552,0.6617,0.6683,0.6752,0.6783,0.68,0.6799,0.6798,0.6808,0.6794,0.6781,0.6785,0.6785,0.6785,0.6785,0.6785,0.6785,0.5973,0.603,0.6064,0.6147,0.6192,0.6255,0.6289,0.6337,0.6385,0.6466,0.652,0.6562,0.6626,0.67,0.6762,0.678,0.6805,0.68,0.6823,0.6808,0.6809,0.6809,0.6797,0.6804,0.6804,0.6832,0.6833,0.6833]},{"header":{"parameterUnit":"m.s-1","parameterCategory":1,"la1":30.2991,"la2":30.254,"lo1":-89.0895,"lo2":-89.0444,"dy":0.0017,"dx":0.0017,"nx":28,"ny":28,"refTime":"2026-01-07T03:00:00:Z","depth":0,"parameterNumber":3,"parameterNumberName":"V-component_of_WINDS"},"data":[0,0,0,0,0,0,0,0,0,0,0,0,0,0,0,0,0,0,0,0,0,0,0,0,0,0,0,0,0,0,0,0,0,0,0,0,0,0,0,0,0,0,0,0,0,0,0,0,0,0,0,0,0,0,0,0,0,0,3.7025,3.7026,0,3.7076,3.7077,3.7078,3.7087,3.7087,3.7086,3.7086,3.7134,3.7135,3.7137,0,0,0,0,0,0,0,0,0,0,0,0,0,3.6933,3.6934,3.7025,3.7026,3.7026,3.7076,3.7077,3.7078,3.7087,3.7087,3.7086,3.7086,3.7133,3.7135,3.7137,0,0,0,0,0,0,0,0,0,0,0,0,0,3.6977,3.6935,3.7025,3.7037,3.7039,3.7076,3.7077,3.7078,3.7087,3.7087,3.7086,3.7086,3.7133,3.7135,3.7137,3.7165,0,0,3.7145,3.7146,0,0,0,0,0,0,0,0,3.6975,3.6981,3.7035,3.7036,3.7038,3.7075,3.7062,3.7107,3.7088,3.7069,3.7086,3.7085,3.7114,3.7118,3.7129,3.7167,3.7169,3.7145,3.7147,3.7148,3.7148,0,0,0,0,0,0,0,3.6972,3.6978,3.7045,3.7036,3.7038,3.7039,3.7045,3.7071,3.7094,3.707,3.7071,3.7078,3.7115,3.7127,3.713,3.7169,3.7145,3.7147,3.7149,3.715,3.7235,3.7236,0,0,0,0,0,0,3.6967,3.6976,3.7044,3.7047,3.7005,3.7042,3.7048,3.7064,3.7094,3.7098,3.7078,3.7078,3.7123,3.7127,3.7132,3.7168,3.7148,3.715,3.7151,3.7234,3.7235,3.7236,0,0,0,0,0,0,3.6965,3.6973,3.7041,3.7012,3.7021,3.7044,3.7061,3.7065,3.7077,3.71,3.7104,3.7086,3.7122,3.7128,3.7157,3.717,3.7151,3.7153,3.7234,3.7235,3.7236,3.7239,0,0,0,0,0,0,3.6962,3.6972,3.6983,3.7012,3.7022,3.7067,3.7062,3.7066,3.7081,3.7082,3.7108,3.7112,3.7122,3.7154,3.716,3.7173,3.7155,3.7232,3.7234,3.7235,3.7238,3.724,3.7242,0,0,0,0,0,3.6959,3.698,3.6983,3.6991,3.7036,3.7067,3.7073,3.7087,3.7082,3.7093,3.7109,3.7111,3.7167,3.7157,3.7164,3.7177,3.7232,3.7234,3.7235,3.7237,3.724,3.7242,0,0,0,0,0,0,3.6949,3.6984,3.6988,3.7019,3.7041,3.7069,3.7083,3.7089,3.711,3.7109,3.7124,3.713,3.7159,3.717,3.7158,3.7207,3.7199,3.7202,3.7198,3.7201,3.7203,3.72,3.7157,0,0,0,0,0,3.6951,3.6975,3.7003,3.7028,3.7039,3.7059,3.7073,3.7082,3.7104,3.7113,3.713,3.715,3.7173,3.7187,3.7209,3.724,3.7247,3.7253,3.7255,3.7257,3.7259,3.7279,3.7283,3.7242,3.7242,3.7242,0,0,3.6954,3.6976,3.6989,3.7027,3.7044,3.7068,3.7067,3.7091,3.7109,3.7116,3.7146,3.7159,3.7183,3.7213,3.7228,3.7224,3.7272,3.7259,3.726,3.7262,3.7281,3.7285,3.7289,3.7243,3.7243,3.7243,0,0,3.6973,3.6991,3.7016,3.7034,3.7062,3.7077,3.7082,3.7111,3.7121,3.7152,3.7158,3.7179,3.7217,3.7235,3.7249,3.7278,3.7281,3.7284,3.7295,3.7315,3.7318,3.7321,3.7333,3.7337,3.7287,3.7287,3.7287,0,3.6973,3.701,3.7027,3.7053,3.7069,3.708,3.7105,3.7121,3.7154,3.7165,3.7161,3.7212,3.7228,3.7265,3.7273,3.7282,3.729,3.7282,3.7316,3.7319,3.7322,3.7335,3.7339,3.7287,3.7287,3.7287,3.7287,0,3.701,3.7036,3.7052,3.7087,3.7106,3.713,3.7151,3.7167,3.7175,3.719,3.7222,3.7243,3.727,3.7279,3.7286,3.7318,3.7315,3.7314,3.7306,3.7327,3.7338,3.7343,3.7288,3.7288,3.7288,3.7287,0,0,3.7022,3.7069,3.7075,3.7092,3.7125,3.7145,3.7171,3.7201,3.7216,3.7238,3.7261,3.7295,3.7295,3.7311,3.732,3.7337,3.7362,3.7334,3.7334,3.734,3.7401,3.7403,3.7408,3.7364,3.7365,3.7366,3.74,0,3.7046,3.7095,3.7112,3.7152,3.7178,3.719,3.7213,3.7235,3.725,3.7274,3.7289,3.7314,3.7311,3.7321,3.7338,3.7355,3.7375,3.7353,3.7386,3.7387,3.7381,3.7414,3.7415,3.7446,3.7404,3.7405,3.7405,0,3.708,3.7107,3.7151,3.7184,3.7196,3.7216,3.7247,3.7268,3.7295,3.7305,3.7325,3.7333,3.7361,3.7353,3.7392,3.7377,3.7392,3.7402,3.7404,3.7408,3.7398,3.742,3.7456,3.7461,3.7412,3.7412,3.7411,0,3.7087,3.7134,3.7167,3.7181,3.722,3.7235,3.7252,3.7278,3.7296,3.7322,3.7334,3.7362,3.7377,3.7399,3.7415,3.7407,3.7454,3.7446,3.7464,3.7463,3.7473,3.7473,3.7513,3.748,3.748,3.748,3.748,0,3.7112,3.7139,3.7171,3.7192,3.7223,3.7242,3.7272,3.7289,3.7313,3.7337,3.7348,3.737,3.739,3.7414,3.7427,3.7459,3.7465,3.7475,3.7478,3.7475,3.7474,3.7485,3.7484,3.7481,3.7481,3.7481,3.7481,0,3.7124,3.7147,3.7185,3.7221,3.723,3.7252,3.7282,3.7302,3.7319,3.735,3.7358,3.7384,3.7414,3.7433,3.7469,3.7478,3.7514,3.7516,3.7506,3.7508,3.7526,3.7525,3.7576,3.7584,3.7544,3.7545,3.7545,0,3.7139,3.7161,3.7201,3.7219,3.7237,3.7265,3.7285,3.7306,3.7326,3.736,3.7377,3.7408,3.7435,3.7482,3.7503,3.7533,3.7536,3.7552,3.754,3.7538,3.7539,3.7538,3.7541,3.7554,3.7554,3.7555,3.7555,0,3.7165,3.7176,3.7205,3.7239,3.7263,3.729,3.7316,3.733,3.7356,3.7377,3.741,3.7431,3.7471,3.7503,3.7535,3.7551,3.7558,3.7559,3.7565,3.7562,3.7557,3.7562,3.7513,3.7557,3.7557,3.7557,3.7557,3.7557,3.718,3.7201,3.7234,3.7266,3.729,3.7316,3.7338,3.7359,3.7388,3.7424,3.7434,3.7469,3.7498,3.7542,3.7559,3.7587,3.7584,3.7592,3.7594,3.7597,3.7598,3.7552,3.7592,3.7592,3.7592,3.7592,3.7592,0,3.7207,3.723,3.726,3.73,3.7326,3.7332,3.7363,3.7384,3.7416,3.7443,3.7471,3.7509,3.7541,3.7567,3.7599,3.7616,3.7621,3.7624,3.7624,3.7628,3.7597,3.759,3.7621,3.7621,3.7621,3.7621,3.7621,3.7621,3.7225,3.7262,3.7278,3.7327,3.7349,3.7386,3.7404,3.7428,3.745,3.7495,3.7522,3.754,3.7567,3.7602,3.7632,3.7639,3.7651,3.7655,3.7662,3.7633,3.763,3.7627,3.762,3.7657,3.7657,3.7691,3.7691,3.7692]}]]